Location: Manston
(51.3500°N, 1.3667°E)
Time: 18:41:41
(UTC+00:00)

Daily predictions for brighter satellites

Satellite Brightness Start Highest point End
(mag) Time Altitude Azimuth Time Altitude Azimuth Time Altitude Azimuth
ATLAS 2AS CENTAUR R/B 3.4 18:53:32 10° NW 19:01:08 51° NNE 19:08:10 10° ESE
Cosmos 1943 4.2 19:00:04 10° SSE 19:04:28 24° ESE 19:08:54 10° NE
Cosmos 1825 Rocket 4.5 19:00:51 10° N 19:04:47 30° ENE 19:08:39 10° SE
USA 234 4.4 19:02:20 10° E 19:06:58 20° SE 19:11:35 10° S
STARLINK-1241 3.7 19:03:11 10° WSW 19:07:21 87° NNW 19:11:31 10° ENE
SL-08 RB Rocket 4.1 19:05:24 10° SE 19:09:44 47° ENE 19:14:10 10° N
SJ-11-01 4.4 19:05:23 10° SSE 19:10:06 83° WSW 19:14:53 10° NNW
HJ-1C 4.2 19:07:38 10° S 19:10:56 54° W 19:14:15 10° NNW
STARLINK-1239 3.7 19:08:10 10° WSW 19:12:19 84° NNW 19:16:30 10° ENE
SPOT 3 Rocket 3.9 19:09:00 10° SE 19:13:57 46° ENE 19:18:56 10° N
Cosmos 1758 Rocket 3.9 19:12:29 10° N 19:16:40 43° ENE 19:20:48 10° SE
SeaSat 1 2.9 19:12:12 10° NNE 19:17:08 69° NW 19:22:01 10° SW
STARLINK-1240 3.7 19:13:09 10° WSW 19:17:18 82° NNW 19:21:28 10° ENE
SJ-6B 2.9 19:16:07 10° SSE 19:20:11 66° ENE 19:24:19 10° N
IRIDIUM 106 4.4 19:15:51 10° N 19:21:01 57° E 19:26:08 10° SSE
STARLINK-1216 3.7 19:18:08 10° W 19:22:18 80° NNW 19:26:28 10° ENE
CZ-4C R/B 4.1 19:17:15 10° WNW 19:22:23 29° N 19:28:24 10° NE
Cosmos 1953 Rocket 4.4 19:19:45 10° N 19:23:47 32° ENE 19:27:50 10° SE
SL-16 R/B 2.5 19:19:40 10° SW 19:25:20 72° WNW 19:31:01 10° NNE
STARLINK-1237 3.7 19:23:08 10° W 19:27:17 78° NNW 19:31:27 10° ENE
Cosmos 1818 4.5 19:24:52 10° SSE 19:29:16 26° ESE 19:33:40 10° ENE
CZ-2C R/B 3.0 19:24:54 10° SSE 19:29:50 84° WSW 19:34:39 10° NNW
Cosmos 1606 Rocket 4.4 19:26:22 10° SSE 19:30:15 31° E 19:34:11 10° NNE
Cosmos 1758 3.5 19:26:52 10° SSW 19:30:57 82° W 19:35:05 10° N
MOS 1 4.4 19:25:18 10° SSE 19:30:57 84° WSW 19:36:40 10° NNW
STARLINK-1233 3.2 19:28:37 10° W 19:31:45 62° N 19:34:36 12° ENE
STARLINK-1212 3.2 19:29:05 10° W 19:32:12 62° N 19:35:01 12° ENE
STARLINK-1202 3.8 19:28:07 10° W 19:32:16 76° N 19:36:26 10° ENE
STARLINK-1105 3.2 19:29:32 10° W 19:32:39 62° N 19:35:29 12° E
STARLINK-1206 3.2 19:30:01 10° W 19:33:07 61° N 19:35:53 12° ENE
STARLINK-1247 3.2 19:30:28 10° W 19:33:34 61° N 19:36:19 13° ENE
STARLINK-1203 3.8 19:29:28 10° W 19:33:35 74° N 19:37:43 10° ENE
STARLINK-1227 3.2 19:30:52 10° W 19:33:59 62° N 19:36:45 13° E
SL-24 R/B 4.5 19:29:58 10° NNE 19:34:07 38° E 19:37:47 10° SSE
CZ-2C R/B 3.3 19:29:42 10° NNE 19:34:14 30° E 19:38:45 10° SSE
STARLINK-1218 3.2 19:31:23 10° W 19:34:28 61° N 19:37:11 13° ENE
STARLINK-1226 3.2 19:31:48 10° W 19:34:54 61° N 19:37:37 13° ENE
Cosmos 1656 Rocket 3.8 19:29:28 10° NNW 19:35:08 61° NE 19:40:14 12° SE
STARLINK-1254 3.2 19:32:14 10° W 19:35:21 61° N 19:38:04 13° E
STARLINK-1215 3.2 19:32:44 10° W 19:35:50 61° N 19:38:30 13° ENE
Meteor 1-21 Rocket 4.2 19:30:38 10° NNW 19:36:14 88° WSW 19:41:47 10° S
STARLINK-1231 3.2 19:33:11 10° W 19:36:17 61° N 19:38:56 13° ENE
Cosmos 2228 3.7 19:32:29 10° SSE 19:36:18 32° E 19:40:10 10° NNE
Cosmos 1992 Rocket 4.2 19:31:31 10° NNW 19:36:45 76° WSW 19:41:56 10° SSE
STARLINK-1232 3.2 19:34:05 10° W 19:37:11 61° N 19:39:47 14° E
STARLINK-1217 3.2 19:34:32 10° W 19:37:38 61° N 19:40:14 14° E
STARLINK-1208 3.2 19:34:57 10° W 19:38:04 61° N 19:40:40 14° E
STARLINK-1229 3.2 19:35:25 10° W 19:38:31 61° N 19:41:04 14° E
STARLINK-1271 3.2 19:35:52 10° W 19:38:59 61° N 19:41:32 14° E
STARLINK-1270 3.2 19:36:20 10° W 19:39:27 61° N 19:41:57 14° E
STARLINK-1154 3.2 19:36:47 10° W 19:39:53 61° N 19:42:23 15° E
STARLINK-1197 3.2 19:37:41 10° W 19:40:47 61° N 19:43:15 15° E
STARLINK-1189 3.2 19:38:10 10° W 19:41:15 61° N 19:43:42 15° E
STARLINK-1198 3.2 19:38:35 10° W 19:41:41 61° N 19:44:07 15° E
STARLINK-1188 3.2 19:39:02 10° W 19:42:09 61° N 19:44:33 15° E
STARLINK-1246 3.8 19:38:04 10° W 19:42:13 73° N 19:46:06 12° ENE
STARLINK-1235 3.2 19:39:42 10° W 19:42:50 62° N 19:45:11 16° E
ARGOS 3.4 19:37:32 10° S 19:42:56 72° WSW 19:48:20 10° NNW
Meteor 2-15 Rocket 4.4 19:36:59 10° S 19:43:03 89° ESE 19:49:10 10° N
STARLINK-1187 3.2 19:40:01 10° W 19:43:10 61° N 19:45:33 16° E
COSMOS 2455 3.7 19:38:09 10° NNW 19:43:48 39° NE 19:48:18 15° E
BREEZE-M DEB (TANK) 4.0 19:36:32 10° W 19:43:50 61° SSW 19:45:58 19° ESE
STARLINK-1199 3.2 19:40:59 10° W 19:44:07 61° N 19:46:28 16° E
STARLINK-1191 3.2 19:41:26 10° W 19:44:33 61° N 19:46:55 16° E
SL-4 R/B 3.6 19:42:57 10° SSE 19:43:45 12° SSE 19:43:45 12° SSE
STARLINK-1201 3.3 19:41:36 10° W 19:44:51 62° N 19:47:21 16° E
STARLINK-1210 3.2 19:41:53 10° W 19:45:00 61° N 19:47:20 16° E
MetOp-A 4.1 19:39:42 10° SSE 19:45:02 74° ENE 19:50:25 10° NNW
STARLINK-1221 3.2 19:42:20 10° W 19:45:27 61° N 19:47:46 17° E
STARLINK-1219 3.2 19:42:47 10° W 19:45:55 61° N 19:48:13 17° E
STARLINK-1222 3.2 19:43:14 10° W 19:46:22 61° N 19:48:39 17° E
STARLINK-1211 3.2 19:43:42 10° W 19:46:49 61° N 19:49:04 17° E
STARLINK-1224 3.8 19:43:06 10° W 19:47:15 72° N 19:50:56 13° ENE
STARLINK-1214 3.2 19:44:09 10° W 19:47:17 61° N 19:49:31 17° E
STARLINK-1234 3.1 19:44:37 10° WNW 19:47:38 61° N 19:49:39 19° E
STARLINK-1228 3.0 19:44:47 10° WNW 19:47:40 60° N 19:49:30 20° E
Cosmos 1603 3.7 19:42:11 10° S 19:47:42 58° ESE 19:53:13 10° NE
STARLINK-1245 3.2 19:44:38 10° W 19:47:44 61° N 19:49:55 18° E
USA 186 3.1 19:44:46 10° S 19:48:01 43° W 19:51:09 10° NNW
STARLINK-1238 3.2 19:45:03 10° W 19:48:10 61° N 19:50:23 18° E
Cosmos 1726 2.1 19:44:53 10° S 19:48:34 61° E 19:52:16 10° NNE
STARLINK-1205 3.2 19:45:59 10° W 19:49:05 61° N 19:51:14 18° E
Cosmos 1340 Rocket 4.1 19:47:46 19° ESE 19:49:06 22° E 19:52:15 10° NE
STARLINK-1204 3.2 19:46:26 10° W 19:49:32 61° N 19:51:39 18° E
H-2A R/B 2.9 19:46:43 10° S 19:51:49 52° W 19:56:50 10° NNW
STARLINK-1225 3.8 19:48:04 10° W 19:52:12 71° N 19:55:41 14° ENE
Cosmos 1328 3.9 19:48:18 10° N 19:52:17 58° ENE 19:55:27 15° SSE
Cosmos 2237 Rocket 4.5 19:47:50 10° W 19:52:32 26° NW 19:57:15 10° NNE
Meteor 1-16 Rocket 4.1 19:49:25 10° S 19:54:42 62° E 20:00:11 10° NNE
Resurs 1-3 3.5 19:51:25 10° SSE 19:55:48 78° ENE 20:00:12 10° NNW
Cosmos 2184 Rocket 4.0 19:50:12 10° N 19:56:34 90° SSW 20:02:49 10° S
STARLINK-1230 3.8 19:53:04 10° W 19:57:12 70° N 20:00:28 16° ENE
STARLINK-1209 3.0 19:55:01 10° WNW 19:57:57 63° N 19:59:26 25° E
STARLINK-1243 3.8 19:58:02 10° W 20:02:11 70° N 20:05:14 18° ENE
ATLAS CENTAUR R/B 3.9 20:00:15 10° NNW 20:02:16 13° N 20:04:14 10° NE
Cosmos 1703 3.2 19:59:47 10° N 20:03:46 79° E 20:06:52 16° SSE
Meteor 2-10 4.1 19:58:51 10° S 20:04:17 84° E 20:09:58 10° NNE
Cosmos 1461 3.5 20:01:07 10° NW 20:05:28 49° NE 20:07:55 24° ESE
ERBS 3.8 20:03:19 10° WNW 20:06:23 31° N 20:08:37 15° ENE
STARLINK-1236 3.8 20:03:05 10° W 20:07:13 69° N 20:10:04 19° ENE
Cosmos 1953 2.9 20:04:32 10° SSW 20:08:28 59° WNW 20:12:25 10° N
DMSP B5D2-2 4.0 20:03:40 10° NNE 20:08:52 65° ESE 20:14:04 10° S
Cosmos 2251 Rocket 3.7 20:05:28 10° SSW 20:10:50 77° WNW 20:16:16 10° NNE
Cosmos 967 Rocket 4.5 20:04:34 10° SSW 20:11:00 73° SE 20:17:30 10° NE
Resurs 01 Rocket 1.5 20:12:28 18° SSE 20:15:45 87° ENE 20:20:11 10° NNW
APEX 4.4 20:09:01 10° NNW 20:15:58 78° ENE 20:19:41 24° SE
STARLINK-1269 3.8 20:13:01 10° W 20:17:10 69° N 20:19:36 24° ENE
Cosmos 1437 4.1 20:14:21 10° NNW 20:17:10 36° W 20:19:45 12° SSW
Cosmos 2154 Rocket 4.0 20:12:01 10° N 20:18:26 86° E 20:24:20 12° S
NOSS 3-4 (A) 3.8 20:13:06 10° NW 20:20:00 90° SSW 20:24:57 24° SE
NOSS 3-4 (C) 3.8 20:13:12 10° NW 20:20:06 90° NE 20:25:02 24° SE
Cosmos 2058 Rocket 3.3 20:18:19 22° SSE 20:21:02 51° E 20:25:25 10° NNE
Cosmos 2369 Rocket 3.5 20:15:56 10° NW 20:21:07 37° WSW 20:26:15 10° S
STARLINK-1200 3.8 20:17:59 10° W 20:22:08 68° N 20:24:22 26° ENE
Cosmos 1300 3.9 20:23:46 26° ENE 20:23:46 26° ENE 20:26:29 10° NNE
CZ-2C R/B 4.1 20:20:19 10° N 20:25:04 71° WNW 20:29:43 10° SSW
Cosmos 962 Rocket 4.5 20:19:14 10° N 20:25:24 65° ENE 20:29:12 24° SSE
Landsat 7 4.2 20:24:19 31° ESE 20:26:06 45° ENE 20:30:39 10° N
Cosmos 1943 Rocket 4.1 20:22:10 10° NW 20:26:40 26° WSW 20:31:11 10° SSW
STARLINK-1192 3.8 20:22:59 10° W 20:27:08 69° N 20:29:09 29° ENE
Nadezhda 1 Rocket 4.0 20:21:51 10° S 20:28:15 84° E 20:34:39 10° N
SL-8 Rocket 4.3 20:23:49 10° N 20:29:57 50° ENE 20:32:55 29° SE
Meteor 1-11 4.3 20:24:09 10° NNW 20:29:58 83° W 20:34:22 18° S
Cosmos 1908 3.2 20:27:25 13° S 20:30:52 87° W 20:34:47 10° N
NOSS 3-3 (A) 4.0 20:25:03 10° SW 20:31:03 88° NW 20:37:54 10° NE
NOSS 3-3 (C) 4.0 20:25:09 10° SW 20:31:09 88° NW 20:38:00 10° NE
STARLINK-1244 3.8 20:27:59 10° W 20:32:07 69° N 20:33:56 32° ENE
STARLINK-67 2.8 20:30:07 10° WNW 20:32:21 62° W 20:32:21 62° W
Abrixas rocket 2.6 20:30:29 10° WSW 20:32:54 42° SSW 20:32:54 42° SSW
STARLINK-1138 3.8 20:32:59 10° W 20:37:07 69° N 20:38:44 35° ENE
CARTOSAT-1 4.4 20:36:52 31° E 20:37:27 33° ENE 20:41:21 10° N
Cosmos 2058 3.9 20:34:09 10° N 20:37:49 30° ENE 20:37:54 30° ENE
Cosmos 1726 Rocket 3.7 20:35:17 10° SSW 20:39:40 73° WNW 20:44:08 10° N
SPOT 5 3.4 20:39:20 32° E 20:39:55 33° ENE 20:43:49 10° N
Cosmos 2366 rocket 4.3 20:34:21 10° N 20:40:17 47° ENE 20:42:31 33° ESE
STARLINK-1143 3.8 20:37:54 10° W 20:42:04 70° N 20:43:28 39° ENE
Cosmos 1190 Rocket 4.0 20:40:52 19° S 20:44:39 57° ESE 20:49:50 10° NNE
STARLINK-1241 3.7 20:42:57 10° W 20:47:06 70° N 20:48:18 44° ENE
Cosmos 1943 3.5 20:42:21 10° SW 20:48:00 71° WNW 20:53:43 10° NNE
Spot 2 Rocket 3.4 20:46:22 33° SSE 20:48:45 89° WSW 20:53:54 10° NNW
USA 234 3.2 20:44:26 10° ENE 20:50:55 61° SE 20:57:23 10° SW
Aureole 1 Rocket 4.1 20:43:54 10° SSW 20:51:36 80° ESE 20:57:38 10° NNE
STARLINK-1239 3.7 20:47:56 10° WNW 20:52:05 71° N 20:53:05 49° ENE
ATLAS 2AS CENTAUR R/B 3.1 20:44:55 10° NW 20:52:27 63° SW 20:56:14 29° SSE
Cosmos 1140 Rocket 3.4 20:51:22 34° S 20:53:29 58° ESE 20:58:33 10° NNE
Iridium 4 Rocket 3.3 20:52:36 10° N 20:56:43 47° ENE 20:56:43 47° ENE
STARLINK-1240 3.7 20:52:55 10° WNW 20:57:05 72° N 20:57:51 55° ENE
RESURS DK-1 4.1 20:55:56 10° N 20:59:06 21° NE 20:59:42 20° NE
Cosmos 1812 Rocket 4.4 21:00:33 34° ENE 21:00:33 34° ENE 21:03:39 10° NNE
MetOp-B 4.4 20:57:15 28° S 21:00:06 66° WSW 21:05:28 10° NNW
MOS 1 Rocket 4.2 20:55:27 10° N 21:00:38 56° WNW 21:05:55 10° SSW
BREEZE M DEB (TANK) 4.2 21:02:07 37° ESE 21:02:07 37° ESE 21:11:39 10° ENE
STARLINK-1216 3.7 20:57:55 10° WNW 21:02:05 74° N 21:02:39 62° ENE
Cosmos 1697 Rocket 4.0 21:00:16 10° NNW 21:05:09 28° NE 21:06:58 24° ENE
STARLINK-1237 3.6 21:02:55 10° WNW 21:07:04 75° N 21:07:26 69° ENE
STARLINK-1233 4.0 21:04:32 10° WNW 21:06:45 42° WNW 21:06:45 42° WNW
Terra 2.2 21:07:36 45° E 21:07:56 46° ENE 21:12:29 10° N
STARLINK-1212 4.1 21:05:00 10° WNW 21:07:10 41° WNW 21:07:10 41° WNW
STARLINK-1105 4.1 21:05:27 10° WNW 21:07:38 41° WNW 21:07:38 41° WNW
Cosmos 468 Rocket 4.3 21:03:44 10° NNW 21:08:49 50° ENE 21:09:34 46° E
Cosmos 921 Rocket 3.2 21:04:51 10° NNW 21:08:59 59° WSW 21:09:38 51° SSW
STARLINK-1206 4.2 21:05:55 10° WNW 21:08:02 39° WNW 21:08:02 39° WNW
STARLINK-1247 4.2 21:06:22 10° WNW 21:08:28 39° WNW 21:08:28 39° WNW
Cosmos 192 4.5 21:04:41 10° NNW 21:09:35 57° ENE 21:10:11 53° E
STARLINK-1227 4.2 21:06:47 10° WNW 21:08:54 39° WNW 21:08:54 39° WNW
STARLINK-1218 4.2 21:07:17 10° WNW 21:09:21 38° WNW 21:09:21 38° WNW
STARLINK-1226 4.2 21:07:42 10° WNW 21:09:46 38° WNW 21:09:46 38° WNW
STARLINK-1254 4.2 21:08:09 10° WNW 21:10:13 38° WNW 21:10:13 38° WNW
STARLINK-1215 4.3 21:08:38 10° WNW 21:10:38 36° WNW 21:10:38 36° WNW
STARLINK-1202 3.6 21:07:53 10° WNW 21:12:03 77° N 21:12:12 75° NE
STARLINK-1231 4.3 21:09:06 10° WNW 21:11:05 36° WNW 21:11:05 36° WNW
Cosmos 1818 3.7 21:06:57 10° SW 21:12:23 73° NW 21:17:51 10° NE
Cosmos 676 Rocket 4.0 21:12:05 58° SE 21:12:29 60° ESE 21:17:40 10° NNE
CZ-4C R/B 3.8 21:06:43 10° NW 21:12:43 37° NNE 21:17:32 19° ENE
STARLINK-1232 4.4 21:10:00 10° WNW 21:11:56 35° WNW 21:11:56 35° WNW
STARLINK-1203 3.5 21:09:05 10° WNW 21:13:13 79° NNE 21:13:15 79° NNE
STARLINK-1217 4.4 21:10:26 10° WNW 21:12:23 35° WNW 21:12:23 35° WNW
STARLINK-1208 4.4 21:10:50 10° WNW 21:12:49 35° WNW 21:12:49 35° WNW
STARLINK-1229 4.5 21:11:19 10° WNW 21:13:13 34° WNW 21:13:13 34° WNW
CZ-2C R/B 3.5 21:09:47 10° N 21:14:44 47° WNW 21:19:40 10° SW
STARLINK-1271 4.5 21:11:47 10° WNW 21:13:41 33° WNW 21:13:41 33° WNW
Cosmos 614 Rocket 4.3 21:09:50 10° SW 21:15:02 65° WNW 21:20:15 10° NNE
Iridium 2 4.0 21:16:00 59° NNE 21:16:00 59° NNE 21:19:11 10° N
STARLINK-1270 4.5 21:12:14 10° WNW 21:14:07 33° WNW 21:14:07 33° WNW
SAR-Lupe-2 4.4 21:12:13 10° N 21:15:42 48° WNW 21:16:30 40° WSW
Mayak 1.2 21:12:53 10° NE 21:13:23 12° NE 21:13:23 12° NE
Cosmos 407 Rocket 3.6 21:11:14 10° SSW 21:16:23 74° WNW 21:21:33 10° NNE
BREEZE-M DEB (TANK) 4.0 21:13:46 10° WSW 21:14:48 17° WSW 21:14:48 17° WSW
IGS 5A 3.6 21:16:12 61° SW 21:16:37 67° WSW 21:20:48 10° NNW
SPOT 1/Viking Rocket 3.6 21:17:02 49° S 21:18:26 77° WSW 21:23:42 10° NNW
STARLINK-1246 3.7 21:17:49 10° WNW 21:21:45 75° NW 21:21:45 75° NW
Cosmos 1821 Rocket 4.5 21:16:56 10° N 21:22:59 43° ENE 21:23:55 41° E
Cosmos 1340 Rocket 4.0 21:23:17 23° SW 21:25:20 40° WNW 21:29:11 10° N
STARLINK-1224 3.8 21:22:52 10° WNW 21:26:34 69° NW 21:26:34 69° NW
ERS-1 Rocket 2.9 21:27:58 63° S 21:28:43 78° WSW 21:33:47 10° NNW
COSMOS 2455 3.1 21:24:07 10° NW 21:30:03 61° WSW 21:31:27 48° S
STARLINK-1225 4.0 21:27:48 10° WNW 21:31:19 62° WNW 21:31:19 62° WNW
Cosmos 1980 Rocket 3.6 21:27:44 10° NNW 21:32:25 26° NE 21:33:52 24° ENE
Cosmos 1892 3.4 21:28:49 10° N 21:31:50 52° N 21:31:50 52° N
ASTEX 1 4.3 21:33:47 35° ENE 21:33:47 35° ENE 21:37:46 10° N
Cosmos 220 Rocket 4.1 21:30:11 10° NNW 21:34:07 73° NW 21:34:07 73° NW
Cosmos 1455 4.4 21:37:02 17° NE 21:37:02 17° NE 21:38:06 10° NNE
STARLINK-1230 4.2 21:32:48 10° WNW 21:36:07 56° WNW 21:36:07 56° WNW
Cosmos 1954 Rocket 3.9 21:37:55 72° SSW 21:38:29 89° ESE 21:43:44 10° NNE
STARLINK-1243 4.4 21:37:45 10° WNW 21:40:53 50° WNW 21:40:53 50° WNW
ATLAS CENTAUR R/B 3.0 21:39:09 10° NNW 21:42:19 25° NNE 21:42:19 25° NNE
ERBS 4.3 21:39:45 10° WNW 21:41:35 29° NW 21:41:35 29° NW
Cosmos 1408 4.2 21:39:53 10° N 21:41:56 31° N 21:41:56 31° N
Cosmos 1461 4.3 21:40:26 10° WNW 21:44:19 33° WSW 21:44:19 33° WSW
Cosmos 1076 Rocket 4.1 21:44:06 10° NNW 21:47:57 52° WNW 21:47:57 52° WNW
Cosmos 1656 3.6 21:44:23 10° NNW 21:50:08 73° ENE 21:50:24 72° E
Cosmos 2218 Rocket 4.4 21:44:44 10° NNW 21:50:47 58° W 21:52:40 42° SSW
Cosmos 2151 3.8 21:48:11 10° N 21:51:14 45° N 21:51:14 45° N
Resurs 01 Rocket 4.3 21:50:52 10° WSW 21:52:53 13° W 21:54:54 10° WNW
Cosmos 1825 3.8 21:49:58 10° N 21:52:04 30° N 21:52:04 30° N
Cosmos 1300 4.5 21:58:40 28° WNW 21:58:49 29° WNW 22:02:12 10° N
Cosmos 2082 Rocket 4.5 22:02:45 11° ENE 22:02:45 11° ENE 22:03:08 10° ENE
ATLAS 5 CENTAUR R/B 3.0 22:02:17 31° NE 22:02:17 31° NE 22:05:00 10° NE
USA 32 4.0 21:55:29 10° N 22:00:37 80° WNW 22:00:37 80° WNW
Okean 3 Rocket 4.3 22:00:35 10° N 22:03:52 50° N 22:03:52 50° N
Cosmos 1814 Rocket 4.3 22:01:37 10° NNW 22:06:34 60° NE 22:06:34 60° NE
COSMOS 2406 4.3 22:09:22 32° ENE 22:09:22 32° ENE 22:12:37 10° NE
Cosmos-2242 4.4 22:09:24 34° NNE 22:09:24 34° NNE 22:11:57 10° NNE
ALOS 2 4.5 22:09:35 22° NE 22:09:35 22° NE 22:12:01 10° N
Meteor 2-1 Rocket 4.4 22:08:05 62° SW 22:08:56 72° WNW 22:14:54 10° N
Cosmos 1763 Rocket 3.7 22:04:03 10° NNW 22:08:49 66° WNW 22:08:49 66° WNW
SPOT 5 4.1 22:18:33 31° W 22:18:33 31° W 22:21:57 10° NNW
Cosmos 1833 Rocket 4.3 22:21:36 23° ENE 22:21:36 23° ENE 22:23:56 10° NE
Cosmos 540 Rocket 3.9 22:25:11 10° NNW 22:29:24 60° NNW 22:29:24 60° NNW
Cosmos 2369 3.8 22:26:25 10° NNW 22:31:29 71° NNW 22:31:29 71° NNW
USA 234 3.5 22:27:33 10° ENE 22:34:03 69° NNW 22:40:32 10° W
Nadezhda 3 Rocket 3.9 22:37:09 80° W 22:37:13 81° W 22:43:34 10° N
RESURS DK-1 4.2 22:33:27 10° NW 22:35:35 29° NW 22:35:35 29° NW
Cosmos 1535 Rocket 4.4 22:36:36 10° N 22:42:23 80° N 22:42:23 80° N
Cosmos 841 Rocket 4.1 22:37:35 10° NNW 22:41:45 52° NW 22:41:45 52° NW
Meteor 2-3 Rocket 3.9 22:37:25 10° NNW 22:42:30 70° NNW 22:42:30 70° NNW
Terra 3.5 22:46:29 26° W 22:46:29 26° W 22:49:56 10° NW
Cosmos 1697 Rocket 3.1 22:44:01 10° NNW 22:48:42 59° NW 22:48:42 59° NW
Mayak 0.6 22:47:42 10° N 22:49:57 29° N 22:49:57 29° N
SL-16 R/B 3.4 22:55:08 10° NNW 23:00:20 34° NE 23:00:33 34° NE
Meteor 2-10 Rocket 4.4 23:01:42 44° NW 23:01:42 44° NW 23:06:25 10° N
CZ-4C R/B 2.8 22:55:14 10° NW 23:02:13 82° NE 23:02:43 77° E
Thor Agena Rocket 4.3 23:01:45 10° N 23:05:38 48° NNW 23:05:38 48° NNW
Cosmos 2360 Rocket 4.0 23:04:41 10° NNW 23:09:09 23° NE 23:10:44 21° ENE
Cosmos 2322 Rocket 3.3 23:06:29 10° NNW 23:11:40 35° NE 23:11:48 35° NE
Cosmos 1980 Rocket 2.8 23:11:26 10° NNW 23:15:38 51° NW 23:15:38 51° NW
ATLAS CENTAUR R/B 4.1 23:17:54 10° NW 23:18:30 14° NW 23:18:30 14° NW
Cosmos 1605 Rocket 4.3 23:21:20 10° NNW 23:26:35 60° NW 23:26:35 60° NW
Cosmos 2173 Rocket 4.4 23:23:11 10° N 23:28:25 52° NE 23:28:25 52° NE
Cosmos 2344 4.2 23:26:57 10° NW 23:36:18 78° SW 23:38:51 60° SSE
Cosmos 2082 Rocket 3.0 23:44:35 47° NNE 23:44:35 47° NNE 23:48:32 10° NNE
ATLAS 5 CENTAUR R/B 3.8 23:43:41 21° NW 23:45:32 26° NNW 23:49:55 10° NE
COSMOS 2406 4.2 23:51:23 39° NW 23:51:37 39° NW 23:56:59 10° NNE
